Location: Cabo di Oristano
(39.8500°N, 8.4333°E)
Time: 16:27:26
(UTC+00:00)

Cosmos 2180 Rocket - Pass Details

Date: 31 January 2023
Orbit: 954 x 1003 km, 82.9° (Epoch: 01 April)

Event Time Altitude Azimuth Distance (km) Brightness Sun altitude
Rises 04:39:29 0° 348° (NNW) 3,658 7.3 -22.5°
Reaches altitude 10° 04:42:01 10° 345° (NNW) 2,714 6.6 -22.0°
Maximum altitude 04:48:05 58° 268° (W) 1,124 4.5 -20.8°
Drops below altitude 10° 04:54:12 10° 191° (S) 2,730 6.8 -19.7°
Sets 04:56:45 0° 187° (S) 3,681 7.5 -19.2°
